This demonstration page uses our WeatherBlox Daily Observations layout. Learn more.

Left ArrowRight Arrow

38.89511, -77.03637

Hourly Observations for June 8, 2015

Temp ( °F °C ) Dew Point ( °F °C ) Humidity (%) Winds ( mph kmh ) Pressure ( in mb ) Visibility ( mi km ) Precip ( " mm )
12:52 am 00:52 Mostly Cloudy 69 20.6 57 13.9 66 66 S 13 20 30.07 1018 10 16 N/A
1:52 am 01:52 Mostly Cloudy 67 19.4 57 13.9 71 71 S 10 17 30.06 1018 10 16 N/A
2:52 am 02:52 Mostly Cloudy 67 19.4 54 12.2 63 63 SSW 10 17 30.06 1018 10 16 N/A
3:52 am 03:52 Mostly Cloudy 66 18.9 54 12.2 65 65 S 13 20 30.05 1018 10 16 N/A
4:52 am 04:52 Mostly Cloudy 66 18.9 54 12.2 65 65 S 15 24 30.03 1017 10 16 N/A
5:52 am 05:52 Mostly Cloudy 65 18.3 54 12.2 68 68 S 15 24 30.02 1017 10 16 N/A
6:52 am 06:52 Mostly Cloudy 66 18.9 55 12.8 68 68 S 14 22 30.01 1016 10 16 N/A
7:52 am 07:52 Mostly Cloudy 69 20.6 56 13.3 63 63 SSW 14 22 30.00 1016 10 16 N/A
8:52 am 08:52 Mostly Cloudy 73 22.8 59 15 62 62 S 14 22 29.99 1016 10 16 N/A
9:52 am 09:52 Cloudy 74 23.3 61 16.1 64 64 SSW 13 20 29.97 1015 10 16 N/A
10:52 am 10:52 Cloudy 78 25.6 64 17.8 62 62 SSW 15 24 29.95 1014 10 16 N/A
11:52 am 11:52 Cloudy 81 27.2 66 18.9 61 61 SSW 16 26 29.93 1014 10 16 N/A
12:52 pm 12:52 Cloudy 84 28.9 68 20 59 59 SSW 17 28 29.91 1013 10 16 N/A
1:52 pm 13:52 Partly Cloudy 86 30 69 20.6 57 57 SSW 14 22 29.88 1012 10 16 N/A
2:52 pm 14:52 Partly Cloudy 87 30.6 70 21.1 57 57 S 17 28 29.84 1011 10 16 N/A
3:52 pm 15:52 Mostly Cloudy 86 30 71 21.7 61 61 S 15 24 29.81 1010 10 16 N/A
4:52 pm 16:52 Mostly Cloudy 88 31.1 71 21.7 57 57 S 20 31 29.81 1009 10 16 N/A
5:22 pm 17:22 Windy with Storms Likely 84 29 70 21 62 62 W 37 59 29.83 1010 2 3 N/A
5:29 pm 17:29 Mostly Cloudy with Thunderstorms 75 24 68 20 78 78 W 9 15 29.83 1010 1 1 0.08 2.03
5:33 pm 17:33 Mostly Cloudy with Strong Thunderstorms 73 23 68 20 83 83 VRB 3 6 29.80 1009 2 3 0.11 2.79
5:36 pm 17:36 Mostly Cloudy with Thunderstorms 73 23 68 20 83 83 N N/A 29.80 1009 3 5 N/A
5:39 pm 17:39 Mostly Cloudy with Thunderstorms 73 23 68 20 83 83 S 3 6 29.80 1009 5 8 0.12 3.05
5:48 pm 17:48 Mostly Cloudy 75 24 66 19 74 74 S 5 7 29.80 1009 10 16 N/A
5:52 pm 17:52 Mostly Cloudy 77 25 68 20 74 74 SE 6 9 29.78 1008 10 16 0.12 3.05
6:52 pm 18:52 Mostly Cloudy 82 27.8 69 20.6 65 65 S 15 24 29.77 1008 10 16 N/A
7:52 pm 19:52 Mostly Cloudy 84 28.9 69 20.6 61 61 SSW 16 26 29.77 1008 10 16 N/A
8:16 pm 20:16 Mostly Cloudy with Thunderstorms 82 28 68 20 62 62 WNW 24 39 29.80 1009 10 16 N/A
8:19 pm 20:19 Mostly Cloudy with Thunderstorms 79 26 64 18 61 61 WNW 21 33 29.80 1009 10 16 N/A
8:37 pm 20:37 Cloudy with Thunderstorms 75 24 64 18 69 69 WNW 15 24 29.83 1010 10 16 N/A
8:46 pm 20:46 Cloudy with Thunderstorms 73 23 66 19 78 78 NW 12 19 29.83 1010 4 6 0.01 0.25
8:52 pm 20:52 Cloudy with Thunderstorms 72 22.2 67 19.4 84 84 W 5 7 29.81 1010 4 6 0.05 1.27
9:13 pm 21:13 Cloudy with Thunderstorms 73 23 66 19 78 78 VRB 3 6 29.83 1010 3 5 N/A
9:15 pm 21:15 Cloudy with Strong Thunderstorms 72 22 66 19 83 83 N N/A 29.83 1010 2 3 0.05 1.27
9:17 pm 21:17 Cloudy with Strong Thunderstorms 72 22 66 19 83 83 NNE 3 6 29.80 1009 2 2 0.06 1.52
9:24 pm 21:24 Cloudy with Thunderstorms 72 22 68 20 88 88 N N/A 29.80 1009 2 3 N/A
9:27 pm 21:27 Cloudy with Thunderstorms 72 22 68 20 88 88 N N/A 29.80 1009 7 11 0.15 3.81
9:33 pm 21:33 Mostly Cloudy with Thunderstorms 72 22 66 19 83 83 SE 3 6 29.80 1009 10 16 0.15 3.81
9:39 pm 21:39 Mostly Cloudy 73 23 68 20 83 83 ESE 5 7 29.80 1009 10 16 N/A
9:52 pm 21:52 Mostly Cloudy 73 22.8 68 20 84 84 ESE 3 6 29.80 1009 10 16 0.15 3.81
9:57 pm 21:57 Mostly Cloudy with Thunderstorms 73 23 68 20 83 83 SE 3 6 29.80 1009 10 16 N/A
10:07 pm 22:07 Mostly Cloudy with Thunderstorms 73 23 70 21 89 89 WSW 6 9 29.83 1010 3 5 N/A
10:09 pm 22:09 Mostly Cloudy with Thunderstorms 73 23 68 20 83 83 WSW 12 19 29.83 1010 2 3 0.03 0.76
10:14 pm 22:14 Mostly Cloudy with Thunderstorms 72 22 68 20 88 88 SSE 5 7 29.80 1009 1 1 N/A
10:17 pm 22:17 Mostly Cloudy with Thunderstorms 72 22 70 21 94 94 S 8 13 29.80 1009 1 2 0.31 7.87
10:19 pm 22:19 Cloudy with Strong Thunderstorms 72 22 70 21 94 94 SSE 9 15 29.80 1009 1 2 0.32 8.13
10:22 pm 22:22 Mostly Cloudy with Thunderstorms 72 22 68 20 88 88 SSE 8 13 29.80 1009 3 5 N/A
10:24 pm 22:24 Mostly Cloudy with Thunderstorms 72 22 70 21 94 94 SSE 8 13 29.80 1009 5 8 N/A
10:32 pm 22:32 Mostly Cloudy 73 23 70 21 89 89 S 8 13 29.80 1009 10 16 N/A
10:52 pm 22:52 Cloudy with Light Rain 73 22.8 68 20 84 84 SSW 7 11 29.80 1009 10 16 0.33 8.38
11:52 pm 23:52 Cloudy 73 22.8 69 20.6 87 87 S 7 11 29.80 1009 10 16 N/A

Powered by AerisWeather